SCP
0 0 0 0 0 0 0 0 0 0 0 0 0 0 0 0 0 0 0 0 0 0 0 0 0 0 0 0 0 0 0 0 1 1 1 1 1 1 1 1 1 1 1
0 0 0 0 0 0 0 0 0 0 0 0 0 0 0 0 0 0 0 0 0 0 0 0 0 0 0 0 0 0 0 0 0 0 1 0 0 1 1 1 1 1 2
0 0 0 0 0 0 0 0 0 0 0 0 0 0 0 0 0 0 0 0 0 0 0 0 0 0 0 0 0 0 0 0 0 0 0 0 0 1 1 1 1 1 1
1 1 0 0 0 0 0 0 0 0 0 0 0 0 0 0 0 0 0 0 0 0 0 0 0 0 0 0 0 0 0 0 0 0 0 0 0 1 1 1 1 1 1
1 1 1 0 0 0 0 0 0 0 0 0 0 0 0 0 0 0 0 0 0 0 0 0 0 0 0 0 0 0 0 0 0 0 0 0 0 0 1 1 1 1 1
1 1 1 0 0 0 0 0 0 0 0 0 0 0 0 0 0 0 0 0 0 0 0 0 0 0 0 0 0 0 0 0 0 0 0 1 0 0 0 1 1 1 1
1 1 1 1 0 0 0 0 0 0 0 0 0 0 0 0 0 0 0 0 0 0 0 0 0 0 0 0 0 1 1 0 0 0 1 1 0 0 0 1 1 1 1
1 1 1 1 1 0 0 0 0 0 0 0 0 0 0 0 0 0 0 0 0 0 0 0 0 0 0 0 0 1 0 0 0 0 1 1 0 0 0 1 1 1 1
1 2 2 2 1 1 0 0 0 0 0 0 0 0 0 0 0 0 0 0 0 0 0 0 0 0 0 0 0 1 0 0 0 0 0 1 1 0 0 1 1 1 1
1 1 2 2 1 1 0 0 0 0 0 0 0 0 0 0 0 0 0 0 0 0 0 0 0 0 0 0 0 0 0 0 0 0 0 0 0 1 1 1 1 1 1
1 1 1 1 1 1 0 0 0 0 0 0 0 0 0 0 0 0 0 0 0 0 0 0 0 0 0 0 0 0 0 0 0 0 0 0 0 1 1 1 1 1 1
0 0 1 1 1 1 0 0 0 0 0 0 0 0 0 0 0 0 0 0 0 0 0 0 0 0 0 0 0 0 0 0 0 0 0 0 0 1 1 0 0 0 1
0 0 1 1 1 1 0 0 0 0 0 0 0 0 0 0 0 0 0 0 0 0 0 0 0 0 0 0 0 0 0 0 0 0 0 0 0 0 0 0 0 0 0
0 0 0 1 1 1 0 0 0 0 0 0 0 0 0 0 0 0 0 0 0 0 0 0 0 0 0 0 0 0 0 0 0 0 0 0 0 0 0 0 0 0 0
0 0 0 0 1 1 0 0 0 0 0 0 0 0 0 0 0 0 0 0 0 0 0 0 0 0 0 0 0 0 0 0 0 0 0 0 0 0 0 0 0 0 0
0 0 0 0 0 0 0 0 0 0 0 0 0 0 0 0 0 0 0 0 0 0 0 0 0 0 0 0 0 0 0 0 0 0 0 0 0 0 0 0 0 0 0
0 0 0 0 0 0 0 0 0 0 0 0 0 0 0 0 0 0 0 0 0 0 0 0 0 0 0 0 0 0 0 0 0 0 0 0 0 0 0 0 0 0 0
0 0 0 0 0 0 0 0 0 0 0 0 0 0 0 0 0 0 0 0 0 0 0 0 0 0 0 0 0 0 0 0 0 0 0 0 0 0 0 0 0 0 0
0 0 0 0 0 0 0 0 0 0 0 0 0 0 0 0 0 0 0 0 0 0 0 0 0 0 0 0 0 0 0 0 0 0 0 0 0 0 0 0 0 0 0
0 0 0 0 0 0 0 0 0 0 0 0 0 0 0 0 0 0 0 0 0 0 0 0 0 0 0 0 0 0 0 0 0 0 0 0 0 0 0 0 0 0 0
0 0 0 0 0 0 0 0 0 0 0 0 0 0 0 0 0 0 0 0 0 0 0 0 0 0 0 0 0 0 0 0 0 0 0 0 0 0 0 0 0 0 0
0 0 0 0 0 0 0 0 0 0 0 0 0 0 0 0 0 0 0 0 0 0 0 0 0 0 0 0 0 0 0 0 0 0 0 0 0 0 0 0 0 0 0
0 0 0 0 0 0 0 0 0 0 0 0 0 0 0 0 0 0 0 0 0 0 0 0 0 0 0 0 0 0 0 0 0 0 0 0 0 0 0 0 0 0 0
0 0 0 0 0 0 0 0 0 0 0 0 0 0 0 0 0 0 0 0 0 0 0 0 0 0 0 0 0 0 0 0 0 0 0 0 0 0 0 0 0 0 0
0 0 0 0 0 0 0 0 0 0 0 0 0 0 0 0 0 0 0 0 0 0 0 0 0 0 0 0 0 0 0 0 0 0 0 0 0 0 0 0 0 0 0
0 0 0 0 0 0 0 0 0 0 0 0 0 0 0 0 0 0 0 0 0 0 0 0 0 0 0 0 0 0 0 0 0 0 0 0 0 0 0 0 0 0 0
Wind_Speed
10 9 8 6 5 4 3 4 3 3 3 2 2 2 2 2 2 2 3 3 4 4 3 3 2 1 1 1 2 2 2 2 1 1 2 2 1 1 1 1 1 1 2
10 10 8 7 4 4 4 3 3 4 4 2 1 0 1 1 1 1 1 3 3 4 4 3 3 2 1 1 2 1 1 2 1 0 1 1 2 2 1 1 1 1 1
9 11 8 7 5 4 4 3 3 4 4 2 1 2 1 2 1 1 1 2 2 2 2 3 3 3 2 1 2 1 1 1 2 0 1 1 1 1 1 1 1 1 1
7 9 8 7 6 5 5 3 3 3 3 2 2 1 1 1 2 2 1 2 1 1 2 2 3 2 1 1 2 1 1 1 1 1 1 0 0 1 0 1 0 1 1
7 9 9 7 6 6 5 3 3 3 3 2 2 0 1 1 1 2 2 2 1 1 1 2 2 2 1 1 1 1 1 1 1 1 1 1 1 1 1 0 0 1 0
7 8 8 7 6 6 5 3 3 3 2 0 1 1 1 1 2 2 2 2 1 1 2 2 2 2 1 1 1 1 1 1 1 1 0 0 0 0 0 0 0 0 1
7 7 8 8 6 6 5 4 4 3 3 1 1 1 1 1 1 1 2 2 2 1 2 2 2 2 2 1 1 1 1 1 1 1 1 0 0 0 0 1 0 0 1
7 7 8 8 7 7 6 5 5 4 3 2 1 0 2 0 1 1 2 2 1 1 2 3 2 2 2 2 1 1 1 1 0 1 1 0 0 0 1 1 1 0 0
7 7 7 8 7 7 6 5 5 4 3 2 1 1 1 1 1 2 1 1 2 2 3 3 2 1 1 1 1 1 1 1 0 0 0 0 1 0 0 1 1 2 1
8 7 7 8 7 7 6 6 5 4 4 3 2 2 1 1 0 2 2 2 2 2 1 2 2 2 1 1 1 1 1 1 0 1 1 1 1 0 0 1 1 1 1
7 7 7 7 7 7 7 6 5 4 4 3 2 2 2 1 1 1 1 1 1 1 2 2 2 2 2 1 1 1 1 1 1 0 1 1 1 1 0 1 1 1 1
7 7 7 7 7 7 7 7 6 5 4 3 2 2 2 1 0 1 1 2 1 1 2 2 3 3 2 2 1 1 1 1 1 1 1 0 1 1 0 1 0 0 1
7 7 7 7 7 7 7 7 6 5 5 4 3 2 2 1 1 1 1 2 2 1 1 1 2 2 2 2 1 1 1 1 1 1 1 1 1 1 0 1 0 0 1
6 7 7 7 7 7 7 6 6 6 5 5 4 3 2 2 1 1 1 1 2 2 1 1 2 2 3 3 3 2 1 1 1 1 1 1 2 2 1 1 1 1 1
6 7 8 7 8 7 7 6 6 6 6 5 4 3 3 3 1 1 1 1 2 3 2 1 1 2 2 3 4 4 3 2 2 2 1 2 3 4 2 1 1 1 0
6 7 9 9 9 8 7 7 6 6 6 6 5 4 3 3 2 1 0 1 1 2 3 2 2 2 2 4 5 4 4 2 1 1 1 1 2 2 2 1 1 1 0
5 6 7 8 9 9 9 8 7 7 6 6 6 5 4 3 3 2 1 1 1 0 2 1 1 2 2 3 3 5 3 2 1 1 0 0 2 1 0 2 3 2 3
4 5 5 6 7 8 9 9 8 7 7 6 6 6 4 4 3 2 1 1 1 1 1 1 0 1 2 2 2 4 2 1 1 1 0 1 1 1 1 1 1 1 1
3 4 4 4 5 7 8 9 9 8 7 6 6 6 5 4 3 3 2 1 1 1 1 1 1 1 1 1 1 3 2 1 0 0 1 1 2 3 3 1 1 1 2
3 3 3 3 4 5 7 7 8 8 8 7 6 6 6 5 4 3 2 2 1 1 2 2 1 2 2 2 1 2 1 2 1 1 2 3 3 3 3 1 1 1 2
3 3 3 3 4 5 6 7 7 7 7 7 6 6 6 6 5 4 3 2 2 1 2 2 1 1 3 3 2 2 1 2 2 1 1 2 4 4 3 2 1 2 3
3 4 4 3 4 5 5 6 6 6 7 7 6 6 6 5 5 4 3 2 2 2 2 2 1 1 2 3 2 2 1 1 1 1 1 1 1 2 2 1 2 4 4
3 4 4 4 4 4 5 6 5 6 7 7 7 6 6 5 4 4 3 2 1 1 1 1 0 0 1 2 1 1 2 1 1 1 2 2 2 1 1 2 3 3 2
3 4 5 5 5 5 5 5 6 6 7 7 7 6 6 5 4 3 2 2 1 1 0 0 0 0 2 2 1 1 1 0 0 1 2 2 2 1 2 2 2 1 1
3 4 5 5 6 5 6 5 6 7 7 8 7 7 6 5 5 4 2 3 2 2 1 1 1 1 1 1 2 1 1 1 0 1 1 1 2 2 2 2 2 2 3
3 4 5 5 6 6 6 6 7 7 7 7 6 5 5 5 5 5 4 4 4 5 5 4 4 3 4 3 3 3 3 3 2 2 1 1 2 2 2 3 3 3 3
Wind_Direction
162 145 137 140 148 137 113 101 110 102 85 47 11 13 3 357 9 19 20 357 354 347 334 329 320 327 319 300 306 311 307 295 293 318 317 306 278 227 197 208 200 184 186
151 142 147 154 158 135 120 116 110 100 92 80 354 327 23 330 11 355 16 6 358 354 342 343 335 325 308 315 300 299 313 307 314 4 356 325 347 332 233 193 201 172 158
162 152 153 150 146 135 119 107 107 110 104 110 44 11 9 316 344 349 16 356 339 341 328 328 324 320 324 294 281 271 269 292 302 330 146 153 214 308 291 230 194 159 146
151 145 150 150 152 137 126 142 132 117 117 122 82 6 335 343 3 358 349 323 352 344 335 324 314 307 303 301 298 303 261 245 287 308 318 292 175 148 290 319 292 179 134
155 148 151 150 151 137 133 142 129 118 108 98 122 248 355 353 348 339 333 325 334 311 319 316 303 297 286 292 301 300 275 218 231 264 301 318 328 281 148 214 300 14 27
150 146 142 141 140 132 133 143 136 120 112 142 180 170 83 342 331 334 336 319 307 309 343 326 315 322 334 344 322 303 271 226 240 256 249 207 190 278 101 158 246 254 275
149 147 146 146 144 143 147 155 148 143 151 205 250 152 123 307 323 335 320 318 331 351 348 342 342 354 353 347 338 312 303 244 216 211 239 261 270 172 93 106 177 274 293
148 151 151 149 152 153 156 164 158 159 163 200 246 51 95 5 2 332 316 328 340 10 1 343 1 21 4 341 347 328 310 283 239 255 224 197 73 105 138 152 131 92 319
153 156 155 153 157 157 163 171 162 163 170 190 185 111 62 56 351 314 322 349 341 3 10 348 359 15 358 338 5 352 331 319 134 248 268 149 208 158 131 122 130 138 132
159 160 159 160 160 158 163 166 164 169 176 182 176 144 146 133 281 309 343 344 341 10 355 337 343 360 9 354 30 24 7 8 78 169 184 167 188 114 104 141 152 147 151
161 161 159 158 158 159 162 167 173 177 167 173 168 149 161 190 256 286 319 311 328 344 345 350 353 3 4 5 47 36 37 4 7 48 108 163 136 119 184 131 153 181 146
160 159 155 155 160 166 169 173 177 175 164 165 167 154 165 167 219 307 319 321 337 342 353 12 4 7 11 4 31 31 28 357 1 27 40 36 102 114 88 91 110 145 166
161 158 156 160 165 170 174 177 174 164 158 158 167 164 165 156 188 283 312 316 320 330 6 48 21 359 353 1 8 12 345 343 30 52 59 42 65 70 74 127 122 144 133
170 164 160 166 169 175 177 178 167 159 161 163 169 170 163 154 190 263 297 321 334 340 5 51 37 14 8 6 2 357 6 5 29 52 65 69 72 54 30 43 43 81 105
177 170 168 173 172 180 179 173 166 164 168 166 167 169 166 152 160 285 293 31 346 339 345 27 48 47 40 19 14 354 358 28 31 38 46 80 96 90 81 59 21 23 50
186 183 177 175 177 181 173 165 168 171 167 166 166 161 169 154 158 223 309 45 333 327 333 11 43 54 41 36 29 10 345 351 9 54 51 117 117 128 147 178 182 135 134
186 185 182 180 183 181 173 170 174 171 171 167 159 160 172 158 167 194 184 215 228 297 320 356 43 76 64 36 16 357 332 321 326 350 72 81 93 112 223 251 231 240 250
176 179 186 180 179 174 169 169 169 169 173 167 162 164 173 166 169 183 208 238 228 185 265 294 52 114 90 61 9 339 313 295 318 344 308 127 80 56 7 287 219 205 230
159 165 179 174 174 170 167 168 170 171 172 169 168 167 168 165 170 184 208 231 241 227 240 234 205 168 118 76 4 350 307 296 289 34 32 64 83 32 26 359 309 277 269
132 144 163 171 172 168 163 169 174 172 172 169 170 164 162 166 176 184 196 211 231 241 246 241 206 156 148 142 77 24 333 321 340 58 73 61 66 46 39 9 339 324 310
135 147 166 176 175 166 164 177 180 176 167 162 162 158 160 169 176 175 179 202 219 241 259 259 226 161 145 139 127 94 8 337 340 5 42 51 60 49 26 7 1 312 312
154 164 176 181 177 172 175 184 180 164 152 154 159 161 166 177 172 164 179 198 210 228 243 246 248 180 138 133 153 167 228 330 344 348 21 69 63 34 0 342 318 328 336
175 176 180 181 182 182 187 187 171 154 151 156 162 167 171 171 158 160 174 189 202 215 234 217 214 131 108 109 112 197 250 309 6 7 5 335 308 310 311 293 312 329 341
185 182 184 189 195 191 192 182 164 160 162 168 171 172 173 166 153 147 155 149 161 202 233 73 40 68 85 56 35 336 275 286 341 309 307 297 308 329 328 339 345 357 11
193 191 200 202 200 191 187 177 171 173 176 178 176 174 168 158 144 131 116 138 129 150 167 142 82 75 77 48 47 68 50 48 23 347 21 33 34 29 23 21 20 20 21
205 209 213 211 203 193 189 182 177 181 184 184 179 171 163 158 153 147 129 74 105 110 109 104 113 100 104 114 83 64 48 36 53 73 59 51 49 43 31 25 19 23 25